GSLV R/B, 100608

Orbit data source: Space-Track

GSLV R/B, 100608 is space debris in HEO originally from an Indian launch on Thu, 03 Sep 2026 UTC launched from the Sirharikota (SRI). Debris objects in space refer to the collection of defunct objects orbiting the Earth. Examples of debris include non-operational satellites, rocket bodies, and fragments generated from explosions, collisions, or faulty payload assembly.

Loading next visibility...
Identifier
100608, 2026-202B
Orbit
HEO
Country
Flag of ININ / IND
Related business
None
Manufacturer
Unknown
Mission
Spacecraft
Bus & Motor
Unknown
Mass
Unknown
Launch date (UTC)
2026-09-03 (2 days ago)
Launch vehicle
Unknown
Launch site
Sirharikota (SRI)
Object type
Payload
Rocket body
Debris
Shape & HBR
Unknown
Radar Cross Section
RCS unknown

Expand to show TLE details & history
Last TLE update: 13 hours ago

TLE from 13 hours ago
0 GSLV R/B
1 A0608U 26202B   26247.84309665  .00041713  46033-7  56132-3 0  9997
2 A0608  19.3275 249.4045 7022343 179.2054 183.2600  2.67110512    49
Epoch: 2026-09-04T20:14Z
TLE epoch observation values (Epoch: 2026-09-04T20:14:03.550Z)
Latitude
-0.00001°
Longitude
-38.07866°
Altitude
30,944.96 km
Speed
1.787 km/s
True Right ascension
16h 37m 35s
True Declination
0° 00' 00"
Sunlit
Object was in daylight at epoch
Visualization orbit readout
Latitude
Unknown
Longitude
Unknown
Altitude
Unknown
Speed
Unknown
Apparent Right ascension
Unknown
Apparent Declination
Unknown
Sunlit
N/A
Visualization observer readout
Local Sidereal Time
01:08:28
Azimuth
Unknown
Elevation
Unknown
Doppler factor
Unknown
Orbital elements
Apogee altitude
30,980.079 km
Perigee altitude
156.801 km
Semi-major axis
21,946.577 km
Eccentricity
0.70223
Inclination
19.3275°
RAAN
249.4045°
Arg. of periapsis
179.2054°
True anomaly
180.80111°
Mean anomaly
183.26°
Eccentric anomaly
181.91528°
Mean motion
0.66756 °/min
Orbital period
539.27 mins
BSTAR
0.00056132
Loading maneuver chart data...
Computing Atmospheric mass density...
Loading historical data...
Loading historical data...
Loading historical data...
Loading historical data...
Loading historical data...
Loading historical data...
Loading historical data...
Other satellites on launch #202 in the year 2026 (2026-09-03 UTC)

Documentation

Showing up to 5 results
|